Other Surface Observations
Issued by NWS

Home | Current Version | Previous Version | Text Only | Print | Product List | Glossary On
Versions: 1 2 3 4 5 6 7 8 9 10 11 12 13 14 15 16 17 18 19 20 21 22 23 24 25 26 27 28 29 30 31 32 33 34 35 36 37 38 39 40 41 42 43 44 45 46 47 48 49 50
000
SXUS52 KTAE 230606
OSOTAE
OSOTAE
North Florida/South Alabama/Southwest Georgia Weather Roundup
National Weather Service Tallahassee Florida
200 AM EDT TUE MAY 23 2017

Note: "fair" indicates few or no clouds below 12,000 feet with no
significant weather and/or obstructions to visibility.

!FLZ017-115-028-034-025-230700
...North Florida...

CITY           SKY/WX    TMP DP  RH WIND       PRES   REMARKS
TALLAHASSEE    CLOUDY    74  73  97 CALM      29.91F
APALACHICOLA   HVY RAIN  77  77 100 SW9       29.92F FOG
PERRY          MOCLDY    74  71  93 CALM      29.94F
CROSS CITY     MOCLDY    72  70  94 S5        29.95F
JACKSONVILLE   CLOUDY    72  72 100 S8        29.94F
$$

!FLZ112-006-005-002-011-230700
...Florida Panhandle...

CITY           SKY/WX    TMP DP  RH WIND       PRES   REMARKS
MARIANNA       CLOUDY    74  72  93 S6        29.90F
BONIFAY        NOT AVBL
PANAMA CITY NW MOCLDY    76  71  85 SW3       29.90F
TYNDALL AFB    PTCLDY    76  72  86 SW6       29.91F
TYND DRONE APT MOCLDY    76  73  89 SW3       29.91F
DE FUNIAK SPR  LGT RAIN  71  70  98 CALM      29.92F
EGLIN AFB      LGT RAIN  76  71  84 SW5       29.91F
DESTIN         CLOUDY    79  79 100 VRB5      29.91F
HURLBURT       LGT RAIN  76  71  84 SW6       29.91S
CRESTVIEW      LGT RAIN  73  71  93 W3        29.93S
PENSACOLA      LGT RAIN  77  72  84 SW5       29.92S
$$

!ALZ063-066-230700
...South Alabama...

CITY           SKY/WX    TMP DP  RH WIND       PRES   REMARKS
DOTHAN         LGT RAIN  73  73 100 SW7       29.94F
OZARK CAIRNS   LGT RAIN  73  72  94 S6        29.90F
FT RUCKER HELI LGT RAIN  73  71  95 CALM      29.89F
RUCKER HELI 3  LGT RAIN  72  71  95 CALM      29.89F
RUCKER HELI 2  LGT RAIN  72  71  97 CALM      29.90S
FLORALA APT    CLOUDY    72  69  90 CALM      29.93F
ANDALUSIA      CLOUDY    75  71  87 SW3       29.91S
TROY           CLOUDY    71  71 100 CALM      29.91F
EUFALA         CLOUDY    73  71  93 CALM      29.89F
MOBILE         RAIN      71  69  93 E7        29.90F
$$

!GAZ120>161-230700
...Southwest and South Central Georgia...

CITY           SKY/WX    TMP DP  RH WIND       PRES   REMARKS
THOMASVILLE    FAIR      73  73 100 CALM      29.92F
BAINBRIDGE     CLOUDY    73  72  94 SW5       29.92S
MOODY AFB      CLOUDY    75  71  88 S9        29.91F
VALDOSTA       MOCLDY    75  72  90 S7        29.92F
MOULTRIE       CLOUDY    73  72  94 SW6       29.92F
BLAKELY        DRIZZLE   75  72  88 CALM      29.91F
ALBANY         LGT RAIN  74  73  97 W5        29.92F
TIFTON           N/A     74  74  99 S6        29.90F
FITZGERALD     LGT RAIN  76  74  92 S3        29.92F
CORDELE        RAIN      76  73  91 CALM      29.91F
AMERICUS       LGT RAIN  70  70 100 CALM      29.92F
HOMERVILLE     FAIR     N/A N/A N/A SW3       29.93F
$$

!GMZ750-755-770-775-230700
...Coastal and Buoy Obs...

STATION/POSITION TIME  TEMP    WIND        PRES    VSBY  WAVE
                       AIR SEA DIR/SP/G                  HT/PER
                 (UTC) (F)     (DEG/KT/KT) (MB)    (MI)  (FT/S)
KEATON BEACH     0600   78     210/ 12/ 13 1013.3F
CEDAR KEY        0500   79     210/  8/ 11 1015.1F
C TOWER          0600   77     200/ 13/ 14 1013.7F
APALACHICOLA BUO 0450   78 78  190/ 12/ 14 1014.3          2/ 8
PANAMA CITY BUOY 0450   77 77  200/  8/  8 1013.5          2/ 8
MOBILE BUOY      0550   77 79  150/  8/ 10 1012.5F         2/ 7
ORANGE BCH AL BU 0450   77 80  180/ 10/ 12 1013.0          1/ 8
$$




USA.gov is the U.S. government's official web portal to all federal, state and local government web resources and services.